Time,TemperatureF,DewpointF,PressureIn,WindDirection,WindDirectionDegrees,WindSpeedMPH,WindSpeedGustMPH,Humidity,HourlyPrecipIn,Conditions,Clouds,dailyrainin,SoftwareType,DateUTC
2013-02-15 00:03:00,53.2,42.0,30.05,NE,38,0.0,4.0,65,0.00,,,0.00,weatherlink.com 1.10,2013-02-15 05:03:00,
2013-02-15 00:18:00,52.8,41.0,30.04,NE,55,0.0,3.0,65,0.00,,,0.00,weatherlink.com 1.10,2013-02-15 05:18:00,
2013-02-15 00:33:00,52.6,41.0,30.05,North,360,0.0,3.0,64,0.00,,,0.00,weatherlink.com 1.10,2013-02-15 05:33:00,
2013-02-15 00:48:00,52.4,41.0,30.04,NNE,22,0.0,2.0,65,0.00,,,0.00,weatherlink.com 1.10,2013-02-15 05:48:00,
2013-02-15 01:03:00,52.4,41.0,30.04,NNE,12,0.0,1.0,65,0.00,,,0.00,weatherlink.com 1.10,2013-02-15 06:03:00,
2013-02-15 01:18:00,52.6,41.0,30.05,North,11,0.0,0.0,64,0.00,,,0.00,weatherlink.com 1.10,2013-02-15 06:18:00,
2013-02-15 01:33:00,52.7,41.0,30.05,North,11,0.0,0.0,64,0.00,,,0.00,weatherlink.com 1.10,2013-02-15 06:33:00,
2013-02-15 01:48:00,52.6,41.0,30.04,NNE,12,0.0,0.0,64,0.00,,,0.00,weatherlink.com 1.10,2013-02-15 06:48:00,
2013-02-15 02:03:00,52.6,41.0,30.05,NNE,13,0.0,0.0,64,0.00,,,0.00,weatherlink.com 1.10,2013-02-15 07:03:00,
2013-02-15 02:18:00,52.5,41.0,30.06,WNW,298,0.0,2.0,64,0.00,,,0.00,weatherlink.com 1.10,2013-02-15 07:18:00,
2013-02-15 02:33:00,52.4,41.0,30.07,NW,325,0.0,4.0,65,0.00,,,0.00,weatherlink.com 1.10,2013-02-15 07:33:00,
2013-02-15 02:48:00,51.9,40.0,30.05,North,360,2.0,2.0,65,0.00,,,0.00,weatherlink.com 1.10,2013-02-15 07:48:00,
2013-02-15 03:03:00,51.4,40.0,30.05,NW,321,0.0,3.0,65,0.00,,,0.00,weatherlink.com 1.10,2013-02-15 08:03:00,
2013-02-15 03:18:00,51.2,40.0,30.03,North,9,0.0,1.0,65,0.00,,,0.00,weatherlink.com 1.10,2013-02-15 08:18:00,
2013-02-15 03:33:00,51.0,40.0,30.04,NNE,15,0.0,0.0,65,0.00,,,0.00,weatherlink.com 1.10,2013-02-15 08:33:00,
2013-02-15 03:48:00,50.8,39.0,30.05,North,351,0.0,1.0,65,0.00,,,0.00,weatherlink.com 1.10,2013-02-15 08:48:00,
2013-02-15 04:04:00,50.6,39.0,30.04,NE,48,0.0,2.0,65,0.00,,,0.00,weatherlink.com 1.10,2013-02-15 09:04:00,
2013-02-15 04:19:00,50.6,39.0,30.05,NW,305,0.0,2.0,65,0.00,,,0.00,weatherlink.com 1.10,2013-02-15 09:19:00,
2013-02-15 04:34:00,50.4,39.0,30.06,NE,37,0.0,2.0,65,0.00,,,0.00,weatherlink.com 1.10,2013-02-15 09:34:00,
2013-02-15 04:49:00,50.2,39.0,30.05,North,360,1.0,5.0,65,0.00,,,0.00,weatherlink.com 1.10,2013-02-15 09:49:00,
2013-02-15 05:04:00,50.0,39.0,30.04,North,5,0.0,2.0,65,0.00,,,0.00,weatherlink.com 1.10,2013-02-15 10:04:00,
2013-02-15 05:19:00,49.9,38.0,30.05,NW,323,0.0,3.0,65,0.00,,,0.00,weatherlink.com 1.10,2013-02-15 10:19:00,
2013-02-15 05:34:00,49.9,38.0,30.07,NW,321,0.0,1.0,65,0.00,,,0.00,weatherlink.com 1.10,2013-02-15 10:34:00,
2013-02-15 05:49:00,49.8,38.0,30.06,NNE,13,3.0,5.0,65,0.00,,,0.00,weatherlink.com 1.10,2013-02-15 10:49:00,
2013-02-15 06:04:00,49.3,38.0,30.08,NNE,18,0.0,1.0,66,0.00,,,0.00,weatherlink.com 1.10,2013-02-15 11:04:00,
2013-02-15 06:19:00,49.0,38.0,30.07,North,355,0.0,4.0,66,0.00,,,0.00,weatherlink.com 1.10,2013-02-15 11:19:00,
2013-02-15 06:34:00,48.7,38.0,30.06,North,351,0.0,3.0,66,0.00,,,0.00,weatherlink.com 1.10,2013-02-15 11:34:00,
2013-02-15 06:49:00,48.6,38.0,30.07,NNW,329,0.0,1.0,66,0.00,,,0.00,weatherlink.com 1.10,2013-02-15 11:49:00,
2013-02-15 07:04:00,48.6,38.0,30.07,NNW,344,0.0,2.0,66,0.00,,,0.00,weatherlink.com 1.10,2013-02-15 12:04:00,
2013-02-15 07:19:00,48.7,38.0,30.08,NNE,19,0.0,3.0,66,0.00,,,0.00,weatherlink.com 1.10,2013-02-15 12:19:00,
2013-02-15 07:34:00,48.8,38.0,30.09,NNE,32,0.0,1.0,66,0.00,,,0.00,weatherlink.com 1.10,2013-02-15 12:34:00,
2013-02-15 07:49:00,48.8,38.0,30.09,North,11,0.0,1.0,66,0.00,,,0.00,weatherlink.com 1.10,2013-02-15 12:49:00,
2013-02-15 08:04:00,49.0,38.0,30.10,NNW,333,0.0,1.0,65,0.00,,,0.00,weatherlink.com 1.10,2013-02-15 13:04:00,
2013-02-15 08:19:00,49.1,38.0,30.11,ENE,76,0.0,1.0,66,0.00,,,0.00,weatherlink.com 1.10,2013-02-15 13:19:00,
2013-02-15 08:34:00,49.1,38.0,30.10,NNW,340,0.0,3.0,66,0.00,,,0.00,weatherlink.com 1.10,2013-02-15 13:34:00,
2013-02-15 08:49:00,49.3,38.0,30.11,North,5,0.0,1.0,66,0.00,,,0.00,weatherlink.com 1.10,2013-02-15 13:49:00,
2013-02-15 09:04:00,49.7,39.0,30.11,NNW,344,0.0,3.0,66,0.00,,,0.00,weatherlink.com 1.10,2013-02-15 14:04:00,
2013-02-15 09:19:00,50.2,41.0,30.12,NNW,331,1.0,4.0,71,0.00,,,0.00,weatherlink.com 1.10,2013-02-15 14:19:00,
2013-02-15 09:34:00,51.0,42.0,30.11,ENE,64,0.0,2.0,72,0.00,,,0.00,weatherlink.com 1.10,2013-02-15 14:34:00,
2013-02-15 09:49:00,52.6,46.0,30.11,NNW,340,1.0,3.0,77,0.00,,,0.00,weatherlink.com 1.10,2013-02-15 14:49:00,
2013-02-15 10:04:00,54.0,48.0,30.11,NE,42,0.0,5.0,81,0.00,,,0.00,weatherlink.com 1.10,2013-02-15 15:04:00,
2013-02-15 10:19:00,55.6,50.0,30.12,NE,41,0.0,4.0,82,0.00,,,0.00,weatherlink.com 1.10,2013-02-15 15:19:00,
2013-02-15 10:34:00,57.1,51.0,30.11,NE,53,1.0,4.0,80,0.00,,,0.00,weatherlink.com 1.10,2013-02-15 15:34:00,
2013-02-15 10:49:00,58.2,52.0,30.10,NNW,333,0.0,4.0,79,0.00,,,0.00,weatherlink.com 1.10,2013-02-15 15:49:00,
2013-02-15 11:04:00,59.4,53.0,30.09,WNW,293,0.0,4.0,79,0.00,,,0.00,weatherlink.com 1.10,2013-02-15 16:04:00,
2013-02-15 11:19:00,60.4,53.0,30.10,NNE,13,0.0,5.0,76,0.00,,,0.00,weatherlink.com 1.10,2013-02-15 16:19:00,
2013-02-15 11:34:00,60.9,53.0,30.10,NE,43,2.0,7.0,74,0.00,,,0.00,weatherlink.com 1.10,2013-02-15 16:34:00,
2013-02-15 11:49:00,61.5,54.0,30.10,NNE,12,0.0,3.0,76,0.00,,,0.00,weatherlink.com 1.10,2013-02-15 16:49:00,
2013-02-15 12:04:00,60.4,53.0,30.09,WSW,249,0.0,6.0,76,0.00,,,0.00,weatherlink.com 1.10,2013-02-15 17:04:00,
2013-02-15 12:19:00,60.2,53.0,30.08,WNW,296,0.0,7.0,76,0.00,,,0.00,weatherlink.com 1.10,2013-02-15 17:19:00,
2013-02-15 12:34:00,61.5,54.0,30.07,West,274,2.0,4.0,75,0.00,,,0.00,weatherlink.com 1.10,2013-02-15 17:34:00,
2013-02-15 12:49:00,62.6,53.0,30.07,SW,225,4.0,6.0,71,0.00,,,0.00,weatherlink.com 1.10,2013-02-15 17:49:00,
2013-02-15 13:04:00,61.7,54.0,30.06,SSW,208,3.0,6.0,75,0.00,,,0.00,weatherlink.com 1.10,2013-02-15 18:04:00,
2013-02-15 13:19:00,62.0,54.0,30.05,SSW,194,3.0,4.0,74,0.00,,,0.00,weatherlink.com 1.10,2013-02-15 18:19:00,
2013-02-15 13:34:00,62.4,54.0,30.03,SW,216,2.0,4.0,74,0.00,,,0.00,weatherlink.com 1.10,2013-02-15 18:34:00,
2013-02-15 13:50:00,62.7,54.0,30.02,SSW,202,0.0,4.0,74,0.00,,,0.00,weatherlink.com 1.10,2013-02-15 18:50:00,
2013-02-15 14:05:00,63.0,55.0,30.02,SSW,193,0.0,4.0,74,0.00,,,0.00,weatherlink.com 1.10,2013-02-15 19:05:00,
2013-02-15 14:20:00,64.0,55.0,30.01,SW,223,0.0,4.0,72,0.00,,,0.00,weatherlink.com 1.10,2013-02-15 19:20:00,
2013-02-15 14:35:00,64.0,55.0,30.01,South,180,0.0,6.0,72,0.00,,,0.00,weatherlink.com 1.10,2013-02-15 19:35:00,
2013-02-15 14:50:00,63.9,54.0,30.00,SSW,196,0.0,5.0,71,0.00,,,0.00,weatherlink.com 1.10,2013-02-15 19:50:00,
2013-02-15 15:05:00,64.5,54.0,30.00,South,189,0.0,4.0,68,0.00,,,0.00,weatherlink.com 1.10,2013-02-15 20:05:00,
2013-02-15 15:20:00,64.9,53.0,29.99,South,188,4.0,4.0,66,0.00,,,0.00,weatherlink.com 1.10,2013-02-15 20:20:00,
2013-02-15 15:35:00,65.2,53.0,29.99,South,169,0.0,3.0,66,0.00,,,0.00,weatherlink.com 1.10,2013-02-15 20:35:00,
2013-02-15 15:50:00,65.6,52.0,29.99,South,178,0.0,5.0,62,0.00,,,0.00,weatherlink.com 1.10,2013-02-15 20:50:00,
2013-02-15 16:05:00,65.8,53.0,30.00,South,182,2.0,4.0,64,0.00,,,0.00,weatherlink.com 1.10,2013-02-15 21:05:00,
2013-02-15 16:20:00,66.0,53.0,29.99,SSW,194,2.0,5.0,63,0.00,,,0.00,weatherlink.com 1.10,2013-02-15 21:20:00,
2013-02-15 16:35:00,66.0,52.0,29.99,SW,217,3.0,5.0,62,0.00,,,0.00,weatherlink.com 1.10,2013-02-15 21:35:00,
2013-02-15 16:50:00,66.0,53.0,29.99,SSW,212,3.0,5.0,63,0.00,,,0.00,weatherlink.com 1.10,2013-02-15 21:50:00,
2013-02-15 17:05:00,66.2,52.0,29.99,SW,231,5.0,7.0,60,0.00,,,0.00,weatherlink.com 1.10,2013-02-15 22:05:00,
2013-02-15 17:20:00,66.9,51.0,29.99,West,274,7.0,7.0,58,0.00,,,0.00,weatherlink.com 1.10,2013-02-15 22:20:00,
2013-02-15 17:35:00,67.0,51.0,29.99,West,270,4.0,7.0,57,0.00,,,0.00,weatherlink.com 1.10,2013-02-15 22:35:00,
2013-02-15 17:50:00,67.1,51.0,29.98,WNW,285,0.0,3.0,57,0.00,,,0.00,weatherlink.com 1.10,2013-02-15 22:50:00,
2013-02-15 18:05:00,66.5,51.0,29.98,WNW,285,1.0,2.0,57,0.00,,,0.00,weatherlink.com 1.10,2013-02-15 23:05:00,
2013-02-15 18:20:00,65.5,50.0,29.98,WNW,285,0.0,0.0,57,0.00,,,0.00,weatherlink.com 1.10,2013-02-15 23:20:00,
2013-02-15 18:35:00,64.9,48.0,29.98,WNW,285,0.0,0.0,55,0.00,,,0.00,weatherlink.com 1.10,2013-02-15 23:35:00,
2013-02-15 18:50:00,64.6,48.0,29.98,WNW,285,0.0,0.0,56,0.00,,,0.00,weatherlink.com 1.10,2013-02-15 23:50:00,
2013-02-15 19:05:00,62.9,51.0,29.98,WNW,288,0.0,0.0,65,0.00,,,0.00,weatherlink.com 1.10,2013-02-16 00:05:00,
2013-02-15 19:20:00,61.7,51.0,29.99,WNW,288,0.0,0.0,68,0.00,,,0.00,weatherlink.com 1.10,2013-02-16 00:20:00,
2013-02-15 19:35:00,60.9,51.0,29.99,WNW,288,0.0,0.0,70,0.00,,,0.00,weatherlink.com 1.10,2013-02-16 00:35:00,
2013-02-15 19:50:00,60.2,51.0,30.00,NE,36,0.0,4.0,71,0.00,,,0.00,weatherlink.com 1.10,2013-02-16 00:50:00,
2013-02-15 20:05:00,59.7,52.0,30.00,NE,38,0.0,1.0,75,0.00,,,0.00,weatherlink.com 1.10,2013-02-16 01:05:00,
2013-02-15 20:20:00,58.7,52.0,30.01,NE,38,0.0,0.0,77,0.00,,,0.00,weatherlink.com 1.10,2013-02-16 01:20:00,
2013-02-15 20:35:00,57.7,51.0,30.00,NNE,21,0.0,0.0,79,0.00,,,0.00,weatherlink.com 1.10,2013-02-16 01:35:00,
2013-02-15 20:50:00,56.9,51.0,30.01,ENE,57,0.0,1.0,80,0.00,,,0.00,weatherlink.com 1.10,2013-02-16 01:50:00,
2013-02-15 21:05:00,56.4,50.0,30.01,NE,44,0.0,1.0,80,0.00,,,0.00,weatherlink.com 1.10,2013-02-16 02:05:00,
2013-02-15 21:20:00,55.8,50.0,30.01,NE,44,0.0,0.0,81,0.00,,,0.00,weatherlink.com 1.10,2013-02-16 02:20:00,
2013-02-15 21:35:00,55.4,50.0,30.02,NE,44,0.0,0.0,81,0.00,,,0.00,weatherlink.com 1.10,2013-02-16 02:35:00,
2013-02-15 21:50:00,54.9,49.0,30.02,NE,44,0.0,0.0,81,0.00,,,0.00,weatherlink.com 1.10,2013-02-16 02:50:00,
2013-02-15 22:05:00,54.4,49.0,30.02,NE,44,0.0,0.0,81,0.00,,,0.00,weatherlink.com 1.10,2013-02-16 03:05:00,
2013-02-15 22:20:00,54.1,48.0,30.02,NE,44,0.0,0.0,81,0.00,,,0.00,weatherlink.com 1.10,2013-02-16 03:20:00,
2013-02-15 22:35:00,53.8,48.0,30.02,NE,44,0.0,0.0,80,0.00,,,0.00,weatherlink.com 1.10,2013-02-16 03:35:00,
2013-02-15 22:50:00,53.5,48.0,30.02,NE,44,0.0,0.0,80,0.00,,,0.00,weatherlink.com 1.10,2013-02-16 03:50:00,
2013-02-15 23:05:00,53.2,47.0,30.02,NE,44,0.0,0.0,79,0.00,,,0.00,weatherlink.com 1.10,2013-02-16 04:05:00,
2013-02-15 23:20:00,52.9,47.0,30.02,NE,44,0.0,0.0,79,0.00,,,0.00,weatherlink.com 1.10,2013-02-16 04:20:00,
2013-02-15 23:35:00,52.6,46.0,30.02,NE,44,0.0,0.0,77,0.00,,,0.00,weatherlink.com 1.10,2013-02-16 04:35:00,
2013-02-15 23:50:00,52.4,45.0,30.02,NE,44,0.0,0.0,77,0.00,,,0.00,weatherlink.com 1.10,2013-02-16 04:50:00,